When you browse on this site, cookies collect data to enhance your experience and personalize the content and advertising you see.
Visit our Privacy Policy to learn more. By continuing to use the site, you agree to this use of cookies and data.
  • In United Kingdom
  • List of Countries
  • For 7 days
  • Water Temperature
  • Satellite Maps
  • Weather Map
  • Weather Widgets
  • user-avatar
    Login

    Hourly Weather Mingora

    Today, 21 February, Thursday

    Time Temperature Precipitation Wind Pressure Humidity
    00:00 +7°C° 1.6 mm 1 mps 673 mmHg 86%
    01:00 +7°C° 1.6 mm 1 mps 673 mmHg 87%
    02:00 +7°C° 1.6 mm 1 mps 672 mmHg 88%
    03:00 +7°C° 1.6 mm 1 mps 672 mmHg 88%
    04:00 +7°C° 1.6 mm 1 mps 672 mmHg 89%
    05:00 +7°C° 0 mm 1 mps 672 mmHg 90%
    06:00 +7°C° 1.7 mm 1 mps 672 mmHg 91%
    07:00 +7°C° 1.7 mm 1 mps 672 mmHg 92%
    08:00 +7°C° 1.7 mm 1 mps 672 mmHg 93%
    09:00 +8°C° 1.3 mm 1 mps 672 mmHg 93%
    10:00 +8°C° 1.3 mm 1 mps 672 mmHg 93%
    11:00 +9°C° 1.3 mm 1 mps 673 mmHg 92%
    12:00 +9°C° 1.5 mm 1 mps 673 mmHg 90%
    13:00 +10°C° 1.5 mm 1 mps 673 mmHg 87%
    14:00 +10°C° 1.5 mm 1 mps 673 mmHg 85%
    15:00 +10°C° 1.4 mm 1 mps 673 mmHg 84%
    16:00 +10°C° 1.4 mm 1 mps 674 mmHg 83%
    17:00 +10°C° 1.4 mm 1 mps 674 mmHg 82%
    18:00 +9°C° 0.3 mm 1 mps 674 mmHg 81%
    19:00 +8°C° 0.3 mm 1 mps 675 mmHg 81%
    20:00 +6°C° 0.3 mm 2 mps 675 mmHg 81%
    21:00 +6°C° 0 mm 2 mps 676 mmHg 79%
    22:00 +5°C° 0 mm 2 mps 676 mmHg 77%
    23:00 +5°C° 0 mm 2 mps 676 mmHg 75%

    Tomorrow, 22 February, Friday

    Time Temperature Precipitation Wind Pressure Humidity
    00:00 +5°C° 0 mm 2 mps 676 mmHg 73%
    01:00 +4°C° 0 mm 2 mps 676 mmHg 72%
    02:00 +3°C° 0 mm 3 mps 676 mmHg 70%
    03:00 +3°C° 0 mm 3 mps 676 mmHg 68%
    04:00 +2°C° 0 mm 3 mps 676 mmHg 66%
    05:00 +2°C° 0 mm 3 mps 676 mmHg 64%
    06:00 +3°C° 0 mm 3 mps 677 mmHg 64%
    07:00 +3°C° 0 mm 3 mps 677 mmHg 63%
    08:00 +4°C° 0 mm 3 mps 678 mmHg 63%
    09:00 +7°C° 0 mm 2 mps 678 mmHg 59%
    10:00 +9°C° 0 mm 2 mps 678 mmHg 55%
    11:00 +12°C° 0 mm 1 mps 678 mmHg 51%
    12:00 +13°C° 0 mm 1 mps 678 mmHg 51%
    13:00 +13°C° 0 mm 1 mps 678 mmHg 50%
    14:00 +14°C° 0 mm 1 mps 678 mmHg 49%
    15:00 +14°C° 0 mm 1 mps 678 mmHg 49%
    16:00 +13°C° 0 mm 1 mps 677 mmHg 50%
    17:00 +13°C° 0 mm 1 mps 677 mmHg 50%
    18:00 +10°C° 0 mm 2 mps 678 mmHg 52%
    19:00 +8°C° 0 mm 2 mps 678 mmHg 54%
    20:00 +7°C° 0 mm 3 mps 679 mmHg 55%
    21:00 +5°C° 0 mm 3 mps 679 mmHg 54%
    22:00 +4°C° 0 mm 4 mps 679 mmHg 53%
    23:00 +4°C° 0 mm 4 mps 679 mmHg 52%

    Day after tomorrow, 23 February, Saturday

    Time Temperature Precipitation Wind Pressure Humidity
    00:00 +3°C° 0 mm 4 mps 679 mmHg 50%
    01:00 +3°C° 0 mm 4 mps 679 mmHg 48%
    02:00 +3°C° 0 mm 4 mps 679 mmHg 47%
    03:00 +3°C° 0 mm 4 mps 678 mmHg 46%
    04:00 +3°C° 0 mm 4 mps 678 mmHg 45%
    05:00 +1°C° 0 mm 4 mps 678 mmHg 44%
    06:00 +3°C° 0 mm 4 mps 678 mmHg 45%
    07:00 +4°C° 0 mm 4 mps 678 mmHg 45%
    08:00 +4°C° 0 mm 4 mps 678 mmHg 45%
    09:00 +8°C° 0 mm 3 mps 678 mmHg 43%
    10:00 +10°C° 0 mm 2 mps 677 mmHg 40%
    11:00 +14°C° 0 mm 2 mps 677 mmHg 37%
    12:00 +14°C° 0 mm 1 mps 677 mmHg 36%
    13:00 +15°C° 0 mm 1 mps 676 mmHg 34%
    14:00 +16°C° 0 mm 1 mps 676 mmHg 33%
    15:00 +15°C° 0 mm 1 mps 676 mmHg 36%
    16:00 +14°C° 0 mm 1 mps 675 mmHg 39%
    17:00 +14°C° 0 mm 1 mps 675 mmHg 41%
    18:00 +12°C° 0 mm 2 mps 675 mmHg 43%
    19:00 +9°C° 0 mm 3 mps 675 mmHg 44%
    20:00 +7°C° 0 mm 3 mps 675 mmHg 45%
    21:00 +5°C° 0 mm 4 mps 675 mmHg 44%
    22:00 +5°C° 0 mm 4 mps 675 mmHg 43%
    23:00 +4°C° 0 mm 4 mps 675 mmHg 42%

    24 February, Sunday

    Time Temperature Precipitation Wind Pressure Humidity
    00:00 +4°C° 0 mm 4 mps 675 mmHg 41%
    01:00 +4°C° 0 mm 4 mps 675 mmHg 40%
    02:00 +3°C° 0 mm 4 mps 675 mmHg 40%
    03:00 +3°C° 0 mm 4 mps 674 mmHg 40%
    04:00 +3°C° 0 mm 4 mps 674 mmHg 39%
    05:00 +3°C° 0 mm 4 mps 674 mmHg 39%
    06:00 +4°C° 0 mm 4 mps 674 mmHg 40%
    07:00 +4°C° 0 mm 4 mps 674 mmHg 41%
    08:00 +5°C° 0 mm 4 mps 674 mmHg 42%
    09:00 +8°C° 0 mm 3 mps 675 mmHg 39%
    10:00 +10°C° 0 mm 2 mps 675 mmHg 36%
    11:00 +14°C° 0 mm 2 mps 675 mmHg 34%
    12:00 +14°C° 0 mm 1 mps 674 mmHg 33%
    13:00 +15°C° 0 mm 1 mps 674 mmHg 32%
    14:00 +16°C° 0 mm 1 mps 674 mmHg 32%
    15:00 +15°C° 0 mm 1 mps 673 mmHg 34%
    16:00 +14°C° 0 mm 1 mps 673 mmHg 36%
    17:00 +14°C° 0 mm 1 mps 673 mmHg 38%
    18:00 +12°C° 0 mm 2 mps 673 mmHg 40%
    19:00 +9°C° 0 mm 2 mps 673 mmHg 43%
    20:00 +7°C° 0 mm 3 mps 674 mmHg 45%
    21:00 +7°C° 0 mm 3 mps 674 mmHg 44%
    22:00 +5°C° 0 mm 3 mps 674 mmHg 44%
    23:00 +5°C° 0 mm 3 mps 674 mmHg 44%

    25 February, Monday

    Time Temperature Precipitation Wind Pressure Humidity
    00:00 +5°C° 0 mm 3 mps 674 mmHg 43%
    01:00 +5°C° 0 mm 3 mps 674 mmHg 43%
    02:00 +5°C° 0 mm 3 mps 674 mmHg 42%
    03:00 +4°C° 0 mm 3 mps 673 mmHg 43%
    04:00 +4°C° 0 mm 3 mps 673 mmHg 44%
    05:00 +4°C° 0 mm 3 mps 673 mmHg 44%
    06:00 +4°C° 0 mm 3 mps 673 mmHg 44%
    07:00 +5°C° 0 mm 3 mps 674 mmHg 44%
    08:00 +5°C° 0 mm 3 mps 674 mmHg 44%
    09:00 +8°C° 0 mm 3 mps 674 mmHg 40%
    10:00 +10°C° 0 mm 2 mps 674 mmHg 35%
    11:00 +12°C° 0 mm 1 mps 675 mmHg 31%
    12:00 +13°C° 0 mm 1 mps 674 mmHg 31%
    13:00 +13°C° 0 mm 1 mps 674 mmHg 32%
    14:00 +13°C° 0 mm 1 mps 673 mmHg 33%
    15:00 +13°C° 0 mm 1 mps 673 mmHg 36%
    16:00 +12°C° 0 mm 2 mps 673 mmHg 39%
    17:00 +12°C° 0 mm 2 mps 673 mmHg 41%
    18:00 +9°C° 0 mm 2 mps 673 mmHg 43%
    19:00 +8°C° 0 mm 3 mps 673 mmHg 46%
    20:00 +5°C° 0 mm 3 mps 674 mmHg 48%
    21:00 +5°C° 0 mm 3 mps 674 mmHg 47%
    22:00 +4°C° 0 mm 3 mps 674 mmHg 45%
    23:00 +4°C° 0 mm 3 mps 674 mmHg 44%

    26 February, Tuesday

    Time Temperature Precipitation Wind Pressure Humidity
    00:00 +3°C° 0 mm 3 mps 674 mmHg 43%
    01:00 +3°C° 0 mm 3 mps 674 mmHg 41%
    02:00 +3°C° 0 mm 3 mps 673 mmHg 40%
    03:00 +3°C° 0 mm 3 mps 673 mmHg 39%
    04:00 +2°C° 0 mm 3 mps 673 mmHg 38%
    05:00 +2°C° 0 mm 3 mps 673 mmHg 36%
    06:00 +3°C° 0 mm 3 mps 673 mmHg 36%
    07:00 +3°C° 0 mm 3 mps 674 mmHg 35%
    08:00 +4°C° 0 mm 3 mps 674 mmHg 35%
    09:00 +7°C° 0 mm 3 mps 674 mmHg 31%
    10:00 +9°C° 0 mm 2 mps 674 mmHg 27%
    11:00 +13°C° 0 mm 1 mps 674 mmHg 23%
    12:00 +13°C° 0 mm 1 mps 673 mmHg 24%
    13:00 +14°C° 0 mm 1 mps 673 mmHg 25%
    14:00 +14°C° 0 mm 1 mps 672 mmHg 26%
    15:00 +14°C° 0 mm 1 mps 672 mmHg 29%
    16:00 +13°C° 0 mm 1 mps 671 mmHg 31%
    17:00 +13°C° 0 mm 1 mps 671 mmHg 34%
    18:00 +10°C° 0 mm 2 mps 671 mmHg 36%
    19:00 +8°C° 0 mm 2 mps 671 mmHg 38%
    20:00 +5°C° 0 mm 3 mps 672 mmHg 41%
    21:00 +4°C° 0 mm 3 mps 672 mmHg 40%
    22:00 +4°C° 0 mm 3 mps 672 mmHg 39%
    23:00 +3°C° 0 mm 4 mps 672 mmHg 38%
    Show more